Location: Waco, TX
(31.5480°N, 97.1670°W)
Time: 04:51:50
(UTC-06:00)

ISS - Pass Details

Date: 15 February 2018
Orbit: 403 x 407 km, 51.6° (Epoch: 22 February)

Event Time Altitude Azimuth Distance (km) Brightness Sun altitude
Rises 10:11:26 0° 222° (SW) 2,305 0.0 32.9°
Reaches altitude 10° 10:13:30 10° 222° (SW) 1,448 -0.9 33.2°
Maximum altitude 10:16:45 83° 134° (SE) 409 -3.1 33.7°
Drops below altitude 10° 10:20:00 10° 46° (NE) 1,454 -0.9 34.2°
Sets 10:22:05 0° 46° (NE) 2,315 0.0 34.5°
